Other Surface Observations
Issued by NWS Charleston, SC

Home | Current Version | Previous Version | Text Only | Print | Product List | Glossary On
Versions: 1 2 3 4 5 6 7 8 9 10 11 12 13 14 15 16 17 18 19 20 21 22 23 24 25 26 27 28 29 30 31 32 33 34 35 36 37 38 39 40 41 42 43 44 45 46 47 48 49 50
000
SXUS52 KCHS 301610
OSOCHS

MARINE OBSERVATIONS
NATIONAL WEATHER SERVICE CHARLESTON SC
1200 PM EDT WED JUL 30 2014

...DOWNTOWN CHARLESTON AND HARBOR...

CITY           SKY/WX    TMP DP  RH WIND       PRES   REMARKS
WATERFRONT PRK   N/A     82 N/A N/A E12G69      N/A
FORT JOHNSON   NOT AVBL

...LAKE MOULTRIE...

CITY           SKY/WX    TMP DP  RH WIND       PRES   REMARKS
PINOPOLIS        N/A     88  70  55 CALM      29.96R HX  92

...LAKE AND SUPPLEMENTAL COASTAL OBSERVATIONS...

STATION/POSITION TIME  TEMP    WIND        PRES    WAVE   SWELL
                       AIR SEA DIR/SP/G            HT/PER HT/PER/DIR
                 (UTC) (F)     (DEG/KT/KT) (MB)    (FT/S) (FT/S/D)
FORT PULASKI     1600   83      80/ 12/ 14 1016.0F
SAPELO ISLAND    1500   89     100/  7     1016.0S
UPR LAKE MARION  NOT AVBL
WINYAH BAY       1500   81      80/  8     1016.0S
LAKE MURRAY      1500   79      50/  2/  7 1016.9R
ACE BASIN NERRS  1500   81      80/  3     1016.0S


...C-MAN AND BUOY OBSERVATIONS...

STATION/POSITION TIME  TEMP    WIND        PRES    WAVE   SWELL
                       AIR SEA DIR/SP/G            HT/PER HT/PER/DIR
                 (UTC) (F)     (DEG/KT/KT) (MB)    (FT/S) (FT/S/D)
BUOY 41004       1600   82 84   60/ 12/ 14 1015.7S   2/ 9   2/ 9
BUOY 41008       1600   83 85   90/  6/  8 1015.3R   2/ 9   2/100/ 9
FOLLY BEACH CMAN 1500   82      90/  9/ 11 1016.8R
CAPERS NS BUOY   1500   82      90/ 12/ 14   N/A
FRIPP NS BUOY    NOT AVBL
5E ST. MARYS GA  1600      85                N/A     2/ 9
FRYING PAN BUOY  NOT AVBL
BUOY 41025       1600          VRB 14/ 17  1017.3F   4/ 7   2/120/ 9
CAPE LOOKOUT NC  1500   78      50/ 15/ 17 1017.8R
BUOY 41002       1548   78 80  190/ 12/ 14 1015.7F   5/ 7   3/200/ 7
BUOY 41010       1600   84 85  260/  4/  6 1015.7F   2/ 5   2/240/ 5
BUOY 41012       NOT AVBL
ST AUGUSTINE FL  1600   87     270/  7/  9 1015.8F


$$



USA.gov is the U.S. government's official web portal to all federal, state and local government web resources and services.